Theta_e
311 312 312 314 314 314 315 315 317 318 318 316 315 315 313 312 309 307 307 309 310 314 316 315 321 323 324 324 326 326 328 328 328 332 333 333 333 328 325 324 325 328 331 333 335 336 335 335 335 335 335 334 334 334 335 334 335 335 334 333 334 334 331 331 333 333 333 334 335 334 333 333 332 333
313 315 313 312 313 313 314 316 317 319 318 316 316 316 315 314 312 311 308 308 309 313 317 318 318 323 322 322 322 325 326 324 327 330 332 332 333 325 321 320 321 324 325 326 328 331 334 335 335 335 335 335 334 334 334 334 334 333 333 333 331 329 329 333 334 334 334 334 335 335 334 333 333 333
316 315 314 312 313 313 314 315 316 318 318 317 317 317 316 315 314 312 310 306 312 313 315 318 320 319 320 321 322 322 324 325 326 329 331 332 326 323 327 322 320 319 318 318 318 319 325 331 333 334 334 334 334 335 334 334 333 333 330 328 327 326 328 331 333 334 335 335 335 335 335 334 334 333
313 313 313 313 313 312 312 314 316 316 317 318 316 317 316 316 316 315 312 309 310 315 316 317 318 319 319 320 320 321 322 325 323 328 330 331 324 332 333 326 322 319 316 315 315 314 317 323 327 330 332 333 333 334 333 333 330 328 326 325 325 324 325 330 334 333 333 334 335 335 335 335 335 334
312 313 312 312 312 311 313 314 313 314 316 315 316 317 316 315 316 315 312 310 311 314 316 316 316 318 319 318 320 319 320 323 325 324 328 329 330 331 332 334 324 318 316 315 313 312 312 313 315 321 328 330 327 328 328 324 323 325 325 325 325 323 321 325 331 333 334 334 336 336 335 335 335 334
312 311 311 311 311 311 312 312 313 313 314 315 315 314 315 315 315 315 314 311 311 311 314 315 317 316 318 316 320 318 319 320 323 324 326 327 328 328 329 329 331 320 317 314 314 313 311 311 310 311 320 325 320 315 316 317 317 321 322 320 320 320 318 319 326 331 332 334 334 335 334 334 333 332
311 310 311 312 311 312 312 311 312 312 313 314 314 314 314 315 315 316 316 314 310 311 312 314 314 315 316 315 316 318 320 321 321 323 323 324 326 327 327 326 328 320 315 314 313 312 311 310 310 310 312 313 313 314 315 315 315 314 315 316 316 316 316 317 319 325 329 333 333 333 331 331 330 329
310 311 310 310 310 311 312 312 311 310 311 312 315 314 314 315 316 316 318 317 314 312 311 313 313 315 314 316 317 318 319 318 320 322 323 324 324 325 325 325 325 321 315 314 314 313 312 311 310 309 309 309 309 310 312 312 312 313 313 313 313 314 314 315 315 316 322 327 328 326 323 325 327 329
312 310 310 310 310 310 310 311 311 311 310 312 313 313 313 314 315 316 317 316 315 313 311 311 313 313 314 315 316 318 316 316 319 321 321 321 323 323 323 323 323 318 318 318 317 315 314 312 311 310 309 308 308 308 309 310 311 311 311 311 311 311 312 312 313 312 314 316 318 319 318 319 320 325
311 311 310 310 310 309 310 311 312 311 311 311 311 312 313 313 313 314 314 314 313 312 312 311 311 312 312 313 314 316 316 314 316 319 320 320 321 321 321 322 322 322 327 326 325 319 318 317 313 309 308 308 308 308 308 308 309 309 309 309 309 310 310 310 310 311 311 312 312 314 314 315 316 319
309 309 310 310 310 310 310 311 311 312 311 312 312 313 312 312 312 313 313 312 311 310 310 309 309 310 312 312 311 314 314 315 315 314 314 315 318 320 319 318 321 322 326 322 317 318 317 316 318 312 309 308 308 308 307 308 308 309 309 307 307 308 308 308 309 309 309 309 309 310 311 311 312 314
309 309 309 310 310 311 311 311 312 312 312 311 311 312 312 312 312 312 313 311 311 310 309 309 309 309 309 310 311 312 313 314 314 316 313 311 313 315 317 318 317 320 321 321 321 318 318 320 321 315 314 312 311 311 311 311 311 311 309 308 307 306 307 307 307 307 308 308 309 309 308 308 308 309
308 309 310 310 310 313 317 316 315 314 315 313 312 313 312 312 311 311 311 310 309 309 308 308 308 306 307 307 307 307 309 309 309 312 312 312 314 314 315 317 318 319 319 318 320 319 320 321 323 323 322 319 316 314 310 310 310 309 307 306 306 306 305 305 306 306 306 307 307 308 307 307 307 307
308 308 309 312 315 317 318 318 317 314 314 318 317 315 311 312 312 311 311 310 310 309 308 308 307 306 305 305 305 306 309 310 311 311 311 310 312 313 313 314 317 318 317 317 316 318 320 320 321 319 316 314 313 311 309 306 306 305 304 304 305 305 305 304 304 304 304 305 305 305 305 304 304 304
308 308 308 308 311 316 318 321 315 309 307 308 311 313 315 315 313 311 311 311 310 308 308 308 307 306 305 306 306 307 308 310 310 310 310 309 310 309 307 307 312 318 316 316 313 315 319 319 319 315 312 310 310 308 305 302 303 303 303 302 302 302 302 303 304 304 303 303 303 303 303 303 303 302
308 308 308 308 309 310 311 311 310 311 309 306 305 304 304 305 307 309 312 313 310 308 308 308 308 306 306 306 307 307 309 310 310 311 310 309 309 309 308 308 307 314 318 313 311 312 317 317 317 314 310 309 308 306 303 302 302 302 301 301 301 301 301 301 301 301 301 301 301 301 300 300 300 300
307 308 308 308 308 307 314 316 315 312 312 312 309 308 308 307 304 297 297 301 312 313 309 309 309 308 307 306 307 310 311 311 308 308 308 309 310 310 309 310 310 313 316 312 310 310 316 316 315 314 310 308 307 306 303 301 301 301 301 300 300 300 300 300 300 300 299 299 298 298 298 298 299 299
308 308 308 308 308 309 310 312 313 313 312 310 309 310 310 311 312 307 298 297 297 305 312 311 310 310 309 308 309 311 312 310 309 308 308 310 310 310 311 313 314 315 317 311 310 309 315 317 315 312 309 308 307 306 302 301 301 300 300 300 300 300 300 300 299 299 299 299 299 299 298 298 297 297
308 308 308 308 308 309 308 308 309 309 308 308 307 308 308 309 310 310 311 308 305 304 307 309 311 311 309 308 309 310 311 310 310 310 309 310 311 312 313 313 314 313 315 313 311 308 314 317 315 312 309 309 308 307 303 301 301 300 300 300 299 299 299 299 299 299 299 299 298 298 298 297 297 296
308 309 308 308 308 308 307 309 304 309 310 307 307 308 308 309 309 309 311 305 305 310 309 309 309 309 308 305 309 310 310 309 309 309 310 311 310 309 308 307 310 310 313 312 313 311 312 316 313 313 310 309 309 308 307 302 300 300 299 299 299 299 299 299 299 299 299 298 298 298 297 297 296 296
309 309 308 308 308 308 308 306 298 298 310 309 308 308 308 308 308 309 310 304 300 300 300 299 299 298 297 296 297 296 295 300 303 305 305 305 308 307 305 306 306 308 308 310 312 311 310 313 312 311 308 307 307 307 306 305 300 299 299 299 299 298 298 298 298 298 298 298 298 297 297 296 296 297
309 309 314 313 308 308 308 302 298 296 306 308 307 307 306 306 307 308 309 309 307 298 296 295 294 294 294 293 293 293 292 293 298 305 303 306 307 305 306 305 306 308 309 312 314 311 311 312 310 309 307 306 306 307 307 305 303 300 300 298 298 298 298 297 297 297 297 297 297 297 297 297 298 303
309 309 312 315 313 310 307 300 298 297 306 308 307 306 307 306 306 308 310 308 308 307 307 306 304 301 298 301 303 306 300 297 303 305 306 307 306 305 305 306 305 305 308 312 314 310 310 311 311 311 309 306 308 308 308 306 304 304 304 303 302 299 298 298 297 297 296 296 296 296 296 296 297 304
309 308 308 310 303 302 301 299 297 296 298 307 307 307 307 306 306 310 309 309 308 308 309 308 307 307 307 307 307 306 305 306 308 307 306 306 307 306 306 306 306 304 307 314 313 313 312 311 311 311 312 308 307 308 307 306 305 305 305 304 302 301 301 300 299 297 296 296 296 296 295 296 296 302
309 309 308 309 305 299 299 299 298 297 295 300 308 308 308 308 310 308 308 309 311 309 307 307 308 307 307 305 305 304 304 305 305 306 305 306 307 307 306 305 305 305 308 313 307 315 311 311 311 309 309 309 308 308 308 306 307 306 305 303 302 302 302 302 301 301 297 296 295 295 295 295 295 298
309 309 310 309 306 299 298 298 298 298 297 295 308 309 301 300 298 308 311 308 309 309 308 306 305 305 304 304 304 304 304 305 307 308 307 306 307 308 309 308 306 305 308 313 301 315 313 310 311 308 308 307 307 306 306 306 305 304 304 303 303 302 302 301 301 300 300 301 300 297 296 295 295 295
310 310 310 311 309 299 297 297 297 297 297 299 303 299 298 298 296 302 309 306 306 306 305 304 304 303 303 303 303 303 304 305 306 307 308 308 308 308 308 309 310 309 311 312 312 314 314 311 310 310 308 308 307 306 304 304 303 301 301 301 301 301 301 301 300 300 300 300 300 296 296 295 294 294
312 311 311 309 302 300 298 296 296 296 297 301 298 296 296 296 298 305 306 304 305 304 303 302 303 303 303 303 302 303 304 305 306 307 307 308 308 308 308 308 308 308 309 310 312 313 313 312 310 310 311 309 307 304 303 304 302 300 299 299 300 300 300 301 301 300 299 300 299 299 299 298 298 297
312 306 301 300 299 298 297 296 295 295 297 295 295 295 295 301 304 303 304 304 304 303 302 303 303 303 303 304 305 305 305 304 305 305 306 305 307 308 308 308 308 307 308 310 311 312 313 312 312 311 308 308 307 307 306 305 302 300 301 299 299 300 301 301 301 300 299 299 298 298 297 297 296 297
300 299 298 296 296 296 297 301 302 302 302 296 294 294 297 303 304 303 303 303 303 302 303 303 303 303 304 304 304 304 302 302 304 305 305 305 308 308 308 309 309 310 309 309 310 311 310 309 310 309 309 308 308 307 308 305 301 302 299 300 301 299 300 300 299 300 299 298 298 298 298 298 297 297
303 302 302 303 300 299 298 298 298 299 300 300 301 300 301 302 303 303 303 303 303 304 303 303 303 304 305 304 302 303 303 303 304 305 305 305 306 306 307 307 308 309 311 308 307 307 307 306 306 308 308 308 308 307 308 307 305 300 299 300 300 298 298 299 299 299 299 299 298 298 297 297 297 297
307 307 302 301 303 303 302 301 301 302 303 303 301 302 302 302 302 303 304 304 303 303 304 304 304 302 302 302 303 303 302 303 304 305 304 304 306 305 306 306 306 308 309 309 307 305 303 306 306 306 308 309 309 309 306 305 304 300 299 300 300 299 299 298 298 299 299 299 298 296 296 296 295 295
305 305 305 303 302 302 301 301 301 301 301 301 301 302 302 302 301 301 302 302 302 302 301 301 302 302 303 302 303 301 301 302 304 304 305 305 306 303 305 306 307 307 306 307 307 306 305 305 305 305 305 307 310 309 307 303 302 301 299 299 299 298 298 299 298 298 299 298 296 296 294 295 295 295
307 305 304 303 302 302 302 302 302 302 302 302 302 301 298 300 301 300 300 301 302 303 301 302 301 302 302 302 302 302 302 303 303 302 300 304 303 304 304 304 305 306 306 306 306 306 304 303 303 304 304 304 305 305 306 306 301 300 300 299 298 297 298 298 299 299 299 298 296 293 293 293 294 295
305 304 303 303 302 302 302 302 303 304 303 302 302 302 301 300 300 299 300 301 301 300 301 301 301 301 301 301 302 302 303 303 304 302 300 303 302 304 304 304 304 305 305 305 305 304 302 302 303 303 303 304 304 304 300 303 303 300 299 298 299 297 297 298 298 299 299 298 297 293 292 292 293 294
303 304 304 303 303 303 302 302 302 302 303 303 302 302 302 300 299 299 300 301 301 300 300 300 299 300 301 302 302 302 302 301 303 303 301 301 302 302 302 304 304 304 305 304 305 303 302 303 303 302 301 300 300 299 302 300 301 302 298 297 298 297 298 298 299 299 298 296 296 294 292 291 291 293
304 303 303 303 303 302 302 304 304 303 303 303 303 302 302 302 302 301 301 301 301 300 301 301 301 301 301 301 301 296 300 300 302 302 302 302 301 301 302 301 300 303 303 304 304 302 301 302 302 303 301 300 299 298 300 303 300 301 304 299 297 298 298 298 298 297 297 296 295 295 294 293 292 293
304 303 302 302 302 303 303 304 303 303 303 302 302 302 302 303 303 303 303 302 301 301 301 301 300 301 302 302 301 302 302 302 302 302 301 302 301 301 302 303 303 302 302 303 302 301 301 303 302 303 302 300 298 297 297 299 300 300 300 302 298 298 299 298 296 295 294 296 294 294 294 292 291 292
303 303 303 303 303 304 303 303 303 303 304 304 302 301 302 302 302 303 302 301 303 302 302 301 301 301 302 303 302 302 302 301 300 301 302 301 302 303 302 302 303 302 301 301 300 300 299 301 302 303 303 302 301 301 301 295 293 296 300 299 301 299 298 298 296 295 293 291 291 291 291 292 292 291
301 302 303 303 304 304 304 304 304 304 304 304 303 304 304 303 303 303 303 301 302 302 302 301 301 300 302 303 301 302 303 302 301 302 302 302 302 302 304 304 303 302 300 301 300 299 299 301 302 303 304 306 307 306 301 294 293 296 300 301 298 300 300 299 295 294 292 293 292 291 290 291 290 292
301 301 302 303 304 304 304 304 304 305 304 305 304 302 303 303 303 304 304 303 300 302 301 301 301 301 302 302 302 302 300 298 301 302 302 302 298 297 299 295 301 302 302 300 301 301 300 302 301 295 300 300 300 302 298 295 293 293 294 297 298 298 297 297 297 294 292 292 292 291 290 290 291 291
303 302 303 303 303 304 305 305 304 304 304 304 303 303 303 303 303 299 301 298 302 302 301 301 302 300 302 302 302 297 300 297 298 299 299 301 300 296 292 296 300 299 301 301 302 303 304 302 298 298 300 300 299 296 295 295 293 293 292 292 295 296 295 295 295 294 295 293 291 288 288 290 292 290
302 303 304 303 303 303 304 303 303 304 304 303 302 303 303 303 303 303 302 301 301 301 302 302 303 302 302 302 302 298 299 297 298 301 299 300 302 300 296 297 300 301 302 304 304 302 300 300 301 301 301 300 295 295 294 293 293 292 290 291 291 292 294 294 294 293 292 291 292 293 293 292 290 289
303 303 303 304 305 304 303 304 304 304 303 304 304 304 303 303 303 303 302 301 301 301 302 302 301 301 302 301 300 300 299 299 300 300 298 296 299 301 300 299 297 300 301 300 300 300 299 299 301 301 298 296 296 295 293 290 292 291 292 290 290 290 289 290 292 291 291 291 290 290 291 292 292 292
302 303 303 304 304 305 305 305 304 303 303 303 303 303 301 301 300 302 302 301 301 301 298 300 298 299 300 297 297 296 297 297 298 297 296 295 296 298 297 299 295 297 297 299 296 295 296 297 298 300 298 294 294 294 292 292 292 290 290 289 289 289 289 289 289 289 289 289 289 289 290 290 290 290
Wind_Speed
3 4 3 3 3 3 2 2 1 1 1 1 2 2 2 2 3 4 4 3 2 3 4 3 3 5 7 7 6 6 5 7 8 5 4 5 5 6 8 10 10 10 11 12 13 13 13 11 14 16 15 14 18 21 23 24 23 22 22 22 23 22 20 20 19 20 21 21 23 23 21 19 18 17
3 3 2 2 3 2 2 2 2 1 0 1 2 1 1 2 1 1 3 4 2 3 3 1 3 4 7 6 7 5 6 8 9 6 5 5 5 5 7 8 9 10 10 11 11 13 15 16 14 14 16 18 21 23 24 24 22 24 23 21 20 18 18 20 21 21 21 21 23 24 22 20 19 18
3 4 4 2 3 2 2 2 2 2 2 1 1 1 0 1 2 2 1 3 2 1 3 3 2 3 6 6 5 5 5 7 8 6 6 7 7 7 4 6 8 9 9 10 10 10 11 14 15 14 11 13 19 21 22 21 23 24 23 20 18 18 19 20 20 21 21 22 24 23 21 21 21 20
3 4 5 4 4 1 1 2 2 2 2 1 1 1 1 1 2 2 2 2 5 2 3 3 5 5 6 6 4 6 6 6 8 6 5 6 7 5 4 4 6 7 7 9 10 9 10 10 10 11 14 15 14 14 17 17 17 18 16 16 16 17 18 21 23 24 24 25 24 24 23 22 21 21
4 4 5 5 4 2 2 2 2 3 2 3 1 0 1 0 1 2 2 2 4 3 2 2 3 4 5 5 3 6 6 7 7 7 5 6 5 5 4 5 5 6 8 8 8 7 7 8 7 8 12 15 13 12 13 15 17 15 15 18 18 16 17 20 22 25 26 26 25 25 24 23 22 22
4 4 5 5 5 2 4 3 3 3 3 3 3 2 1 1 1 2 2 2 2 4 3 3 2 2 1 4 2 4 6 7 6 6 6 5 5 5 5 5 5 6 6 8 9 9 7 7 7 8 10 13 13 12 13 16 16 16 15 12 13 17 17 18 22 23 22 25 24 24 24 24 22 20
4 4 5 6 5 2 3 3 4 3 4 3 3 4 1 3 2 3 4 1 2 4 4 3 3 2 2 2 4 5 4 5 4 4 5 5 4 4 5 5 4 6 8 8 8 9 9 7 8 9 9 10 11 12 14 17 18 16 15 15 17 19 19 19 19 18 22 21 20 21 22 21 18 20
5 5 4 6 5 3 4 5 4 3 4 4 3 4 2 2 4 3 3 3 2 1 3 3 4 3 4 3 3 3 4 4 5 3 4 4 3 5 5 5 5 6 9 9 8 8 8 8 6 6 8 9 10 11 12 13 12 12 13 14 13 15 17 18 19 19 21 23 23 23 18 16 19 20
6 5 6 6 4 3 5 4 4 3 4 3 3 4 3 3 4 3 2 2 2 3 4 4 3 3 2 2 3 2 5 5 4 3 4 5 4 4 3 4 4 6 7 7 8 8 8 8 9 6 7 8 8 9 10 11 11 11 13 14 13 15 16 15 17 17 18 20 21 20 19 22 21 19
6 6 6 6 4 4 5 6 5 3 5 3 3 4 5 5 3 4 3 1 2 2 3 3 4 2 4 4 3 2 4 5 5 4 3 4 3 5 6 5 4 4 4 4 5 6 7 7 7 7 6 6 7 8 8 8 9 9 10 11 12 14 15 15 16 17 18 19 18 18 18 20 20 19
6 6 5 5 5 5 6 6 6 5 4 4 5 5 5 4 3 4 4 1 2 2 2 2 2 3 2 1 5 3 5 3 2 5 8 6 2 3 5 7 5 3 3 2 4 6 7 7 5 5 4 5 4 2 4 5 6 8 9 10 11 12 12 13 14 15 16 17 17 17 18 18 17 18
6 6 6 6 6 6 6 6 6 5 5 4 5 5 4 3 3 4 4 3 3 2 2 2 2 1 2 3 2 3 4 4 1 2 3 7 9 7 5 4 7 4 4 5 5 5 6 6 5 3 4 6 5 6 4 4 2 4 6 8 9 10 10 11 12 13 14 15 16 17 17 18 17 18
6 6 6 6 6 6 8 9 7 6 6 4 5 5 4 4 4 4 3 3 3 3 2 4 2 2 3 3 3 5 4 5 6 7 4 4 6 7 7 6 4 3 5 5 4 5 5 6 5 4 3 5 6 7 8 6 8 7 5 5 7 7 8 9 10 11 12 13 14 15 15 17 17 17
7 7 6 6 9 10 11 11 11 9 8 9 7 6 4 4 4 4 5 4 3 3 3 4 3 4 4 3 2 3 3 5 5 6 5 6 7 7 7 5 1 3 5 6 7 5 4 4 5 3 3 4 5 4 5 5 6 6 7 7 5 3 4 6 7 9 9 10 10 11 11 5 10 13
8 7 6 6 7 9 10 9 9 9 9 9 10 10 9 7 7 5 6 6 4 3 4 3 3 3 5 5 3 3 4 3 4 4 4 5 6 6 6 7 7 1 5 7 9 7 4 4 5 2 3 4 4 4 4 7 6 7 7 7 5 4 4 3 2 3 6 8 9 10 8 11 14 11
7 7 7 6 5 6 8 7 7 8 9 9 8 8 8 9 10 9 8 7 4 4 4 4 5 3 4 4 4 3 2 3 4 5 6 6 5 6 6 6 6 4 5 9 9 9 4 3 2 1 2 3 3 3 5 7 7 7 7 6 6 6 6 6 6 5 4 5 4 4 4 4 4 4
8 7 7 7 6 6 10 9 7 7 7 7 7 6 7 8 9 11 12 10 7 3 5 6 5 5 3 3 3 3 2 1 5 5 5 6 6 6 6 6 6 8 7 8 7 6 4 2 2 3 1 1 2 2 4 7 6 6 6 6 6 6 6 5 6 6 5 4 4 4 3 3 1 1
9 9 8 8 7 7 6 7 7 7 7 6 5 5 5 5 7 8 10 11 9 8 6 5 6 5 5 5 4 5 2 3 4 3 4 4 6 7 7 7 7 8 6 6 3 5 3 1 2 3 2 2 0 0 2 5 5 6 7 7 7 7 6 6 6 6 6 5 4 2 1 2 3 4
10 9 8 8 9 8 7 7 8 8 8 7 6 6 6 6 6 4 5 7 7 8 8 7 8 7 5 6 7 4 3 4 4 4 6 6 6 6 6 6 6 6 3 4 3 5 6 1 2 2 2 1 1 0 1 5 5 5 6 6 6 6 6 7 6 6 5 4 2 1 1 1 2 3
9 9 9 8 9 9 9 10 12 10 7 6 7 7 7 6 6 6 7 8 8 8 7 7 8 7 7 6 6 5 3 3 4 4 5 5 6 6 6 7 3 3 0 2 4 4 5 1 4 4 1 2 2 1 0 3 4 4 4 4 4 5 5 5 5 4 4 4 3 3 2 2 2 2
10 9 9 10 9 10 10 12 13 13 8 7 7 7 7 6 6 8 6 8 12 12 11 11 10 8 8 8 9 9 7 6 3 3 3 5 4 4 6 5 3 4 1 2 5 3 5 2 2 3 1 3 3 2 1 1 2 3 3 3 3 4 5 6 5 5 5 5 5 6 5 4 3 2
8 9 16 12 10 10 12 14 15 13 9 8 8 7 7 7 8 8 7 4 5 9 10 10 10 10 10 9 9 9 8 8 7 4 5 4 1 6 7 8 5 3 2 4 5 4 4 1 2 2 1 1 3 3 2 2 2 2 2 2 3 5 5 3 4 5 6 7 7 7 6 5 3 1
7 8 10 16 14 13 14 16 15 13 11 9 9 9 7 7 7 8 7 5 5 4 4 5 4 5 6 6 5 6 9 10 10 7 7 3 4 6 8 9 8 7 5 4 7 4 2 2 2 2 2 2 1 1 2 3 2 2 2 1 1 2 1 2 3 4 5 6 6 5 5 5 5 2
7 8 8 10 16 18 17 17 16 15 14 10 9 7 6 7 9 8 6 7 6 5 5 6 3 4 3 3 3 4 4 4 7 7 7 7 6 6 7 8 8 9 6 3 8 4 2 3 3 3 3 3 3 1 2 4 4 3 2 1 1 2 2 2 1 2 4 5 6 6 6 5 4 2
9 9 9 8 12 17 18 17 17 16 15 14 9 8 8 10 10 4 5 8 9 6 5 4 3 3 3 4 3 4 4 4 4 5 7 7 8 7 6 7 7 9 8 5 7 6 5 3 3 3 3 3 2 2 1 2 2 3 3 3 2 2 1 0 1 0 2 3 5 6 6 6 4 3
10 11 10 9 13 17 18 18 17 18 16 17 9 11 15 15 13 8 6 4 4 4 4 3 3 3 4 5 5 5 5 4 4 4 5 7 8 8 8 8 7 7 8 2 8 8 7 5 6 3 2 2 3 2 3 2 2 2 3 2 2 1 1 1 1 0 2 3 3 4 5 7 6 4
12 10 10 10 14 15 17 17 18 18 19 12 11 17 16 16 15 10 5 5 4 4 4 3 4 5 5 5 6 5 6 5 4 4 4 6 7 7 8 8 8 10 9 4 5 8 8 5 3 5 4 4 5 3 4 5 3 2 2 2 1 1 1 1 0 2 3 3 2 1 2 4 6 6
10 9 9 11 16 16 16 17 17 17 17 13 17 17 17 16 11 7 6 6 7 5 4 5 5 6 5 5 6 7 5 5 4 4 4 5 6 6 6 6 7 9 8 7 6 6 5 5 4 5 6 5 6 6 5 3 1 3 3 2 1 1 1 1 1 1 1 2 2 3 3 2 2 2
9 9 12 13 13 12 12 14 14 12 14 17 15 16 16 11 5 6 6 6 5 6 7 6 6 5 6 7 7 3 4 4 3 3 4 4 5 5 5 4 4 4 5 5 6 6 5 6 7 5 4 4 6 5 4 3 3 4 5 4 3 3 2 1 1 0 0 1 2 2 2 2 2 2
15 15 12 9 10 9 9 7 7 8 10 14 17 16 11 6 7 6 7 6 7 8 7 7 7 7 5 5 4 4 2 3 4 2 3 2 3 3 3 2 3 3 4 4 5 7 6 4 5 4 4 6 6 7 7 5 4 4 5 6 3 3 2 2 1 1 1 2 2 2 2 2 2 2
13 11 9 12 13 8 8 10 11 10 10 8 7 6 8 8 7 7 7 8 9 8 7 6 6 6 5 1 3 4 4 5 5 4 4 4 5 4 3 3 4 4 2 3 2 3 4 4 5 5 5 5 5 7 5 4 4 3 4 5 5 3 4 3 2 1 2 2 2 3 3 2 2 2
9 7 6 6 2 3 4 5 4 5 5 6 6 6 5 6 6 6 6 5 5 7 6 5 5 4 4 6 6 3 4 6 5 4 4 5 5 4 3 2 4 4 4 3 3 2 3 3 4 5 7 7 7 5 2 4 4 4 4 5 3 2 5 4 3 3 4 3 2 2 3 2 2 2
4 5 5 4 5 5 7 6 7 7 5 5 5 6 5 5 5 5 6 8 8 7 5 7 8 8 6 6 6 4 5 6 5 4 5 6 5 4 4 6 5 4 5 5 4 3 3 3 3 4 5 6 7 6 4 3 3 4 6 6 5 4 4 4 4 5 5 3 2 2 3 3 3 2
5 5 5 6 7 7 8 9 9 7 6 6 6 6 7 6 5 6 7 7 7 7 7 7 7 8 7 7 6 5 6 6 5 5 6 4 5 6 6 6 6 5 6 6 6 4 3 2 1 1 2 1 1 1 4 5 4 5 6 6 6 5 4 5 5 6 5 3 4 4 3 3 3 3
7 7 6 6 7 8 8 8 9 9 7 7 6 6 6 6 8 8 7 7 6 6 7 8 7 7 7 8 6 6 7 7 5 3 5 5 5 7 6 7 6 6 6 6 7 4 4 4 3 3 2 2 2 0 3 1 4 5 5 6 6 5 6 6 6 6 5 4 3 4 3 3 3 3
8 7 7 7 8 8 7 6 5 4 6 6 6 5 5 6 7 7 8 9 7 7 7 8 8 9 8 7 7 7 7 6 5 4 5 6 7 7 6 7 7 6 6 6 7 4 5 5 5 5 5 3 3 3 2 3 2 7 8 6 5 6 6 7 6 6 5 4 4 3 3 3 3 3
8 6 5 6 5 6 8 9 9 9 8 7 7 6 6 7 6 8 10 8 7 8 9 9 8 8 7 7 7 5 6 6 6 5 5 6 6 6 7 7 7 6 6 7 6 4 5 6 7 6 5 6 6 7 5 0 3 1 5 8 7 6 7 7 7 6 5 5 4 3 3 4 4 3
8 6 7 8 9 9 8 7 6 7 7 6 6 6 7 8 7 7 5 6 8 7 8 7 7 8 7 7 7 7 6 6 5 5 5 6 7 7 8 7 6 7 7 6 5 6 6 6 8 8 7 7 6 6 4 2 1 2 4 7 8 7 7 8 8 7 6 4 5 4 3 3 3 3
7 7 7 9 9 6 7 7 5 6 7 7 7 8 8 7 7 6 6 6 7 7 6 7 7 8 8 8 7 7 7 6 6 7 7 7 7 7 7 6 6 5 5 6 5 5 6 7 8 9 9 8 8 6 5 5 3 2 4 5 6 9 8 8 7 7 7 5 5 5 6 5 6 8
7 7 7 7 7 6 6 5 5 6 6 6 7 7 7 6 6 6 7 7 7 7 7 9 9 7 7 7 7 6 6 7 7 6 7 6 7 7 6 6 5 5 6 6 5 6 7 10 7 6 6 7 2 1 3 3 2 1 3 4 8 8 9 8 8 9 7 6 7 7 6 5 4 3
6 6 8 7 5 5 5 5 6 6 7 7 7 7 7 7 6 7 7 7 7 7 7 7 7 7 7 7 7 7 8 7 7 7 6 6 7 7 7 4 5 6 7 7 7 7 9 8 6 6 4 3 4 5 4 2 2 2 3 3 1 0 6 7 8 8 7 8 5 5 6 6 5 5
6 6 6 5 7 7 7 8 7 7 8 7 7 7 7 7 8 8 9 8 7 7 7 6 7 7 7 7 7 6 8 8 8 8 8 6 6 6 7 6 6 6 7 7 7 6 2 3 6 6 5 5 5 3 3 4 3 3 2 2 2 6 9 8 8 6 6 7 8 6 4 2 2 2
8 7 7 7 7 6 6 7 7 7 7 7 7 7 6 7 6 7 5 6 6 6 7 7 6 6 7 6 7 6 7 7 7 7 7 7 7 7 6 7 7 6 6 5 2 2 4 5 7 7 6 6 4 5 4 4 3 4 3 3 3 4 6 8 11 12 10 10 8 4 1 2 4 4
6 7 7 7 7 8 9 8 6 5 6 7 8 8 7 7 7 9 8 7 6 7 6 7 6 7 7 7 7 7 7 6 7 8 6 5 8 7 7 6 6 5 4 3 3 3 5 6 7 8 8 6 5 4 3 4 4 4 5 4 3 6 5 3 6 8 8 10 11 8 3 3 2 4
6 6 7 7 7 7 8 9 7 9 8 8 8 9 8 8 11 8 6 7 7 7 6 7 6 7 7 5 5 6 7 8 6 6 4 3 5 4 4 5 4 4 5 5 3 3 4 5 5 7 6 4 4 5 4 5 4 5 4 5 6 6 6 6 7 6 3 1 9 11 4 3 5 3
Wind_Direction
281 294 301 284 297 305 294 306 262 103 139 207 199 187 199 202 314 350 335 331 333 321 4 338 317 2 344 340 333 336 339 334 338 324 310 296 278 253 244 250 259 262 264 261 265 278 279 266 250 247 239 231 231 232 236 233 230 231 228 228 223 218 216 216 217 217 216 216 219 221 222 220 220 212
284 288 303 281 290 282 298 307 299 170 163 187 167 166 200 175 261 236 331 315 252 291 316 227 309 330 335 336 332 334 330 337 343 337 330 322 306 273 255 252 253 260 260 254 250 246 241 248 254 254 246 225 227 232 237 232 227 236 235 227 221 221 221 218 217 218 217 218 221 223 221 219 220 218
273 289 295 271 263 255 280 295 297 264 146 286 193 142 136 204 209 247 154 331 273 195 299 283 305 321 315 332 322 330 335 342 345 345 349 351 332 313 290 264 261 262 264 270 268 259 254 248 246 248 249 237 236 242 240 236 236 228 229 228 221 215 218 221 226 223 218 218 222 223 221 219 217 217
249 256 272 272 260 242 214 285 271 275 287 165 258 154 139 229 234 187 176 252 293 229 250 285 302 322 313 323 339 343 337 338 350 351 350 352 341 345 340 294 273 276 261 249 245 247 253 252 250 249 248 247 249 246 250 253 249 244 230 230 224 220 215 220 225 228 225 222 220 223 224 223 220 219
237 238 238 259 254 212 216 212 271 281 277 314 297 233 158 149 241 191 180 232 291 290 232 263 301 321 325 329 5 347 344 338 343 347 351 357 359 357 347 333 302 275 272 269 260 243 243 256 259 258 259 257 246 238 246 242 242 237 234 235 233 227 219 217 223 229 227 225 221 222 224 225 224 223
245 238 240 250 258 197 232 220 225 249 278 284 308 301 281 298 272 218 202 217 234 286 307 301 292 295 38 319 319 358 340 337 335 341 344 352 357 357 353 348 344 322 285 273 278 276 254 238 241 240 250 256 258 247 232 239 236 232 224 230 242 234 223 221 221 223 231 232 229 229 230 231 229 225
258 244 234 247 251 203 232 240 234 232 247 241 246 275 258 289 255 228 220 190 263 275 295 300 317 308 337 320 318 335 327 318 323 326 350 342 341 357 353 351 349 344 335 313 292 288 290 280 250 237 230 239 246 249 240 237 238 232 228 210 210 216 218 222 228 227 228 233 231 233 230 231 230 227
241 234 242 248 239 217 232 252 238 236 234 231 229 256 256 244 260 226 207 208 239 262 296 309 309 320 331 309 299 308 314 332 333 339 326 337 344 349 348 348 345 346 348 344 337 320 305 291 271 256 251 241 242 245 248 247 242 235 230 224 220 228 225 221 220 219 222 223 226 232 238 238 235 234
232 228 225 248 237 203 221 248 252 235 238 237 234 252 258 251 254 270 229 231 213 245 269 289 285 306 290 272 307 328 349 336 326 329 347 341 334 337 335 330 339 334 341 351 353 349 332 307 297 275 246 248 245 246 251 255 254 246 240 236 223 223 231 226 224 220 221 226 226 227 216 224 228 230
227 225 230 233 220 200 203 229 241 235 245 238 230 239 240 236 251 268 264 205 223 231 257 253 293 312 321 323 313 326 0 334 322 328 336 333 347 345 342 345 336 337 341 354 357 352 346 338 313 290 279 257 247 243 245 255 262 258 251 247 240 233 227 222 222 222 222 225 227 223 222 228 230 229
230 225 224 224 212 209 208 217 227 232 239 228 242 233 236 232 235 247 261 228 212 219 256 272 226 273 274 285 314 333 336 293 290 337 336 335 340 342 342 329 331 328 327 337 335 333 329 326 333 345 338 317 308 291 253 246 251 257 258 252 245 242 241 235 229 227 225 224 225 224 224 225 225 226
231 225 221 222 213 211 213 209 216 200 227 217 244 234 217 219 214 237 246 251 252 269 272 243 289 256 291 311 281 298 318 342 343 30 340 317 324 333 332 313 318 321 334 341 344 339 335 338 339 358 67 54 55 33 9 2 313 268 252 246 247 247 243 236 232 233 234 232 229 226 226 228 226 224
236 234 223 225 221 222 226 216 213 205 207 201 232 239 203 211 205 229 238 243 260 265 270 280 250 274 291 286 315 330 336 334 318 316 318 297 312 321 323 327 327 347 340 330 327 338 335 327 334 334 353 17 17 33 24 6 356 358 341 304 267 256 247 239 235 232 230 230 232 234 234 232 231 230
240 236 231 233 236 235 237 231 225 224 231 230 208 216 194 218 213 217 235 239 231 249 265 267 282 300 291 295 302 292 281 297 306 314 329 328 325 328 327 314 340 350 345 337 336 327 321 322 316 332 342 351 21 19 19 3 346 347 350 357 355 318 263 238 227 230 234 237 242 244 248 275 265 254
241 240 232 230 243 245 245 240 225 222 221 218 220 218 209 199 200 221 235 243 206 218 226 245 247 252 282 287 276 262 280 285 295 306 315 315 319 325 328 319 321 59 1 339 330 320 331 328 321 332 335 342 5 19 17 352 359 358 3 10 19 38 57 68 105 175 208 219 230 239 231 214 226 219
239 241 240 235 222 222 224 227 238 240 243 239 228 223 227 231 232 229 218 237 233 202 227 239 238 237 250 280 297 285 251 295 312 311 313 307 304 308 306 304 300 304 2 327 320 311 313 327 309 297 330 337 3 23 8 1 358 3 10 16 23 33 42 53 63 71 83 111 142 153 163 210 247 247
234 234 237 246 237 234 236 235 225 227 239 237 235 245 254 252 236 236 240 238 237 194 206 226 247 228 228 244 254 229 259 259 298 310 314 312 298 285 287 287 295 301 321 314 309 305 305 302 260 264 259 339 345 5 6 2 1 2 8 13 18 28 37 53 72 79 76 65 71 80 96 118 160 191
230 228 228 234 246 238 229 233 229 224 226 234 240 243 243 241 256 236 226 233 239 235 225 206 230 232 174 227 226 245 240 267 274 285 289 293 294 286 277 289 292 295 289 273 290 296 293 255 265 284 315 301 284 32 21 7 14 8 6 11 18 25 28 30 36 39 46 47 40 19 114 176 179 188
226 225 223 225 235 242 231 218 218 219 223 222 235 244 246 246 245 240 227 225 221 219 221 223 228 242 223 237 248 251 235 239 256 267 280 283 281 281 290 290 272 277 253 225 201 287 305 297 284 254 228 234 270 76 84 32 25 22 16 14 22 26 23 27 30 25 25 30 29 19 318 290 244 215
226 223 218 220 230 235 237 235 222 222 212 212 224 238 251 262 254 248 237 223 206 205 203 209 217 223 221 220 234 231 215 237 256 281 275 274 268 274 282 281 279 258 274 223 223 270 292 284 288 281 204 246 259 257 225 74 42 36 34 25 26 35 34 30 34 37 21 17 18 2 357 320 278 259
225 219 211 213 224 228 232 236 223 219 209 217 217 229 244 252 268 270 259 214 214 217 214 218 226 234 236 238 246 249 230 223 230 253 273 261 261 273 279 275 233 258 213 235 216 246 280 274 243 272 270 243 256 244 211 167 72 49 54 59 64 54 42 31 22 24 23 22 23 20 8 348 305 244
226 221 222 217 217 224 230 233 228 212 195 214 214 220 233 251 256 266 263 249 216 215 218 226 232 237 239 238 242 243 226 196 200 193 242 245 235 270 270 275 267 264 249 241 189 212 236 213 214 238 275 288 239 230 215 178 157 177 135 99 78 66 55 35 28 28 25 16 11 10 8 8 342 125
225 230 231 227 222 221 229 228 227 213 195 213 212 206 206 235 247 246 248 238 223 205 212 229 210 232 219 219 218 234 225 201 201 208 236 236 215 260 271 271 276 280 258 220 170 218 243 212 219 213 293 285 223 214 210 205 208 187 184 171 142 132 118 73 45 40 38 32 23 14 1 354 334 351
234 230 234 233 232 231 231 229 227 220 202 210 210 191 203 219 240 239 226 230 210 227 213 237 223 255 263 258 252 261 256 233 229 218 224 232 225 238 256 264 259 260 263 203 184 221 236 206 253 189 243 279 279 197 215 232 221 210 208 183 178 193 205 219 128 59 43 36 26 18 7 360 345 317
243 238 229 228 228 227 232 233 228 225 213 212 210 201 212 213 225 189 207 229 210 205 207 223 234 251 275 265 259 261 257 246 222 219 223 222 220 218 230 245 252 255 252 243 190 217 247 190 225 194 230 221 241 267 207 251 224 211 200 183 207 211 221 295 305 16 80 66 45 30 17 5 355 334
241 238 235 232 228 221 225 230 229 228 222 213 213 219 220 228 223 209 210 178 180 193 196 204 228 253 262 275 275 263 258 253 241 220 222 221 220 223 221 225 237 250 260 198 178 223 242 242 228 197 203 216 252 223 268 241 212 190 167 172 177 180 202 223 227 54 25 16 20 36 38 28 23 19
238 234 233 237 235 224 221 223 226 229 228 214 219 225 225 230 223 217 210 190 178 188 193 197 233 236 243 255 260 260 263 246 227 230 217 225 225 229 230 227 230 243 262 273 225 231 232 230 174 204 227 223 257 247 240 253 242 158 154 148 153 190 200 232 62 29 10 8 10 42 83 73 53 44
242 237 232 232 233 228 221 220 223 228 228 223 222 223 226 227 217 205 204 199 205 195 200 215 231 237 232 231 248 247 239 251 235 232 232 247 240 239 239 232 234 240 256 263 255 245 221 215 208 213 231 236 256 257 259 223 179 185 190 150 161 184 204 217 79 37 20 5 354 358 353 356 16 39
246 255 251 248 247 243 231 226 226 232 234 231 230 226 226 220 179 200 199 205 188 205 213 217 225 233 229 226 237 237 240 256 260 255 260 252 245 227 224 228 223 231 241 244 244 237 235 227 231 226 222 220 237 246 225 249 195 211 196 171 220 195 182 172 174 280 22 23 27 22 12 360 349 349
232 235 239 262 278 268 246 229 217 223 229 226 224 226 217 197 202 189 192 191 196 213 215 215 223 228 233 229 201 210 211 240 239 214 241 241 230 211 217 236 249 231 229 237 241 243 237 236 232 224 224 230 227 243 237 220 218 215 184 201 174 127 188 177 183 157 95 66 59 54 44 31 18 345
252 253 238 225 219 200 220 226 226 225 233 230 227 216 207 207 202 196 192 193 197 212 216 213 220 229 234 276 246 234 212 239 242 196 219 236 244 220 226 235 270 285 244 172 184 191 196 204 208 208 227 241 235 232 234 219 230 178 201 190 163 197 173 175 174 146 126 111 106 90 73 61 48 26
228 227 242 246 296 180 211 218 236 246 240 226 227 223 212 211 198 204 210 223 231 234 222 230 232 244 219 240 245 229 225 238 244 191 203 219 228 209 181 221 250 253 271 225 199 226 239 222 217 222 228 240 246 243 189 199 215 175 180 185 176 130 148 169 162 146 137 133 110 78 63 48 43 42
162 201 204 186 175 180 213 231 236 235 230 230 227 226 221 213 199 193 187 204 213 208 195 219 223 230 219 238 235 235 244 238 232 182 213 222 220 201 198 226 238 236 245 252 227 199 217 232 239 245 247 256 255 241 198 202 202 170 170 171 164 160 165 165 164 154 153 140 121 101 70 58 52 50
227 210 202 189 200 209 205 213 216 232 223 224 221 220 218 214 203 202 206 214 223 207 208 220 223 226 218 237 228 223 234 249 219 193 195 211 202 202 206 220 232 227 228 244 245 229 193 200 183 136 133 146 33 281 238 233 183 173 171 161 160 161 166 161 163 161 165 162 144 122 99 75 67 62
215 219 193 200 202 213 212 214 212 218 218 220 224 225 204 202 213 213 212 217 209 206 210 216 219 222 224 234 224 221 225 230 224 182 206 207 201 211 205 214 229 223 222 232 238 211 166 192 174 159 157 175 193 170 66 60 165 159 152 162 163 157 161 167 165 163 155 141 142 127 121 98 68 65
224 215 213 205 208 210 217 226 228 224 228 231 225 224 206 211 207 204 219 215 200 210 214 220 221 224 225 220 223 222 225 223 228 197 197 202 207 214 211 218 222 224 218 227 239 205 179 198 198 199 214 214 225 238 209 25 95 166 158 159 156 156 158 164 164 157 147 142 136 139 137 121 95 69
223 210 212 220 216 207 214 215 212 218 211 221 224 219 219 221 214 214 224 208 209 216 218 217 220 214 214 215 218 221 216 208 226 204 202 208 206 207 212 221 220 222 222 231 229 198 182 198 201 204 214 217 225 241 232 124 350 279 176 155 159 164 159 156 159 156 148 141 135 139 141 130 119 100
230 190 200 217 220 213 207 214 217 228 228 219 222 226 229 228 226 220 195 195 212 212 211 205 214 208 211 206 209 215 212 212 218 216 207 193 200 209 214 215 215 214 221 227 211 202 192 199 199 205 210 218 220 232 237 226 226 198 179 161 155 163 157 157 160 152 135 109 116 96 93 109 108 110
235 222 212 221 235 221 213 213 204 219 221 217 219 224 223 213 218 215 203 210 211 213 205 210 212 208 205 204 204 208 207 196 206 216 210 206 202 202 211 211 211 211 207 224 215 197 193 209 205 205 206 215 219 215 191 178 222 176 159 185 158 154 167 168 161 144 135 122 99 81 67 70 82 96
240 237 241 235 239 234 237 222 217 217 224 217 220 233 234 230 218 213 211 211 210 210 209 214 212 203 208 206 198 205 212 206 206 206 205 201 201 204 207 199 197 183 201 217 214 207 204 215 200 195 213 221 249 56 104 110 79 28 138 181 194 173 163 165 161 151 137 137 135 125 123 128 118 137
242 236 243 241 247 241 238 230 228 231 234 233 229 232 232 232 231 227 220 216 214 211 213 215 199 205 209 204 202 195 204 210 210 211 205 206 194 197 200 178 192 197 204 215 217 217 220 219 188 181 138 109 130 115 102 116 124 140 168 160 110 292 172 167 154 156 141 150 145 130 134 141 139 147
253 252 248 231 230 233 229 236 232 225 235 232 230 230 230 230 234 237 238 227 219 211 209 209 205 205 210 206 198 195 207 205 202 207 204 197 187 185 185 186 203 196 202 216 217 216 135 115 125 140 155 147 149 163 194 187 176 175 159 105 60 106 102 84 73 74 125 154 153 144 125 113 114 149
267 258 260 252 244 251 249 248 239 233 235 231 230 226 227 228 227 226 219 219 213 219 219 220 211 205 207 202 198 191 199 211 201 200 195 193 191 182 187 202 202 185 193 203 157 107 132 151 158 166 163 174 188 183 186 188 167 156 140 141 130 101 79 81 93 93 77 49 34 36 41 137 147 181
264 264 262 260 258 251 254 247 243 237 233 232 232 227 222 227 232 230 220 217 217 218 220 218 214 210 212 200 195 193 205 209 196 191 190 193 193 195 190 183 183 182 184 161 140 135 149 159 170 171 170 193 188 182 182 151 170 170 167 142 135 129 121 119 99 86 73 47 22 10 36 83 12 338
260 260 266 268 261 244 246 251 245 245 236 232 229 227 214 225 242 232 221 218 221 224 221 216 213 211 214 202 186 202 212 207 193 193 183 172 183 189 190 174 166 175 175 163 151 155 163 165 172 179 178 179 182 193 169 170 161 150 147 151 158 148 145 146 140 135 112 108 9 357 314 199 190 118